Nature

Rosh Pina Airport Is an airport located between Mahanayim and Rosh Pina, Domestic flights are made from it, mainly to Tel Aviv.
The field includes a north-south landing runway (15/33 direction) and a separate landing pad for helicopters away from it. The second runway to the east and west (5/23 direction), and the peripheral taxiways are out of use.

AT EILAT AIRPORT YOU CAN FIND Only one actove RUNWAY (15/33).

Scenery:

Sim Download Size Author
P3D & FSX LLIB Rosh Pina 5.5MB Freeware ISP
P3D & FSX ICVFR Rosh Pina 32.9MB Freeware Chris Bell

Charts:

File Name
General Aerodrome Chart
Ground Parkings Chart
CVFR Lanes of entry / exit on low transport routes and helicopter routes
CVFR Traffic Pattrens Chart
Departure DESHE1B / DESHE1A Departure RWY 15 and 33
Arrival VOR RWY 15 and 33 (CLOUD BREAK)

METAR & TAF:

Available data for LLIB from the past hour
BEN YA AKOV
Metar
LLIB 240450Z VRB02KT CAVOK 28/10 Q1010

04:50 UTC

Wind: ° 2kt

Visibility:

Sky:

Temp: 28 deg C / 82.4 deg F

Dewpoint: 10 deg C / 50 deg F

Pressure: 1010 hPa

TAF
TAF LLIB 240305Z 2403/2424 23005KT CAVOK BECMG 2407/2409 15008KT TEMPO 2409/2414 22008KT BECMG 2414/2416 VRB04KT TEMPO 2416/2419 35008KT TX42/2410Z TN23/2403Z